Simultaneous Nadir Overpasses (SNOs) Predictions

Prediction of SNOs between GOES-15 and TERRA Satellite Orbit:

Table of predicted SNOs for the next 14.0 days since TLE Epoch: 10/27/2013
Index Date Time (GOES-15) GOES-15 Lat,Lon TERRA Lat,Lon Distance(km) Time Diff (sec)
1 10/27/2013 07:30:33 0.32,-134.79 0.28,-134.87 10.06 80
2 10/29/2013 07:15:47 0.32,-134.87 0.92,-131.94 332.65 80
3 10/29/2013 19:39:44 -0.30,-134.85 0.19,-137.10 256.32 80
4 10/31/2013 19:25:01 -0.31,-134.92 -0.45,-134.18 84.25 80
5 11/01/2013 07:49:08 0.29,-134.99 -0.63,-139.39 499.92 80
6 11/02/2013 19:13:00 -0.31,-134.99 -1.07,-131.27 422.93 80
7 11/03/2013 07:37:08 0.29,-135.05 0.01,-136.48 161.88 80
8 11/05/2013 07:22:30 0.29,-135.10 0.64,-133.58 174.18 80
9 11/05/2013 19:46:29
